OneWeb SL0338

operational
NORAD ID: 49204 Int'l Des: 2021-083 Owner: ONEWEBN Country: UK Constellation: oneweb
LEOCIRCULARPOLARONEWEB_TYPE

OneWeb SL0338について

説明を読み込み中...

リアルタイム位置

3D地球を読み込み中...

次回通過

高度履歴

Altitude vs Time

uPlot chart will show altitude changes over time

軌道要素

1 49204U 21083U 25303.11966919 -.00000014 00000-0 -66567-4 0 9999
2 49204 87.9194 320.3496 0002060 100.3748 259.7618 13.20773182206445
Epoch: Oct 30, 2025 • Age: 11 hours

現在のステータス

高度 1193.9 km
速度 7.26 km/s
衛星直下点 81.61°N, 82.39°E
打ち上げ日 Sep 14, 2021
運用期間 4.1 years
タイプ internet

技術仕様

分類 Payload
質量 148.00 kg
乾燥質量 140.00 kg
総質量 148.00 kg
長さ 1.30 m
直径 1.00 m
スパン 5.00 m
形状 Trapezoid+2 pan
製造者 ONEWUS
バスタイプ ARROW
フェーズステータス In Orbit
所有者/国 ONEWEBN/UK

大規模コンステレーション

Loading constellations...